Regional Weather Roundup
Issued by NWS Charleston, SC

Current Version | Previous Version | Text Only | Print | Product List | Glossary Off
Versions: 1 2 3 4 5 6 7 8 9 10 11 12 13 14 15 16 17 18 19 20 21 22 23 24 25 26 27 28 29 30 31 32 33 34 35 36 37 38 39 40 41 42 43 44 45 46 47 48 49 50

000
ASUS42 KCHS 181628
RWRCHS

REGIONAL WEATHER ROUNDUP
NATIONAL WEATHER SERVICE CHARLESTON SC
1200 PM EDT FRI AUG 18 2017

NOTE: "FAIR" INDICATES FEW OR NO CLOUDS BELOW 12,000 FEET WITH NO
SIGNIFICANT WEATHER AND/OR OBSTRUCTIONS TO VISIBILITY.

NOT ALL STATIONS ARE QUALITY CONTROLLED. USE DATA WITH CAUTION...
ESPECIALLY DEWPOINT OBSERVATIONS.

SCZ027-030-031-034>040-042>050-181700-
...SOUTHEAST SOUTH CAROLINA...

CITY           SKY/WX    TMP DP  RH WIND       PRES   REMARKS
N CHARLESTON   MOSUNNY   92  75  57 W6        29.98F HX 103
WATERFRONT PRK   N/A     90  76  63 W5        29.84S HX 101
JOHNS ISLAND   FAIR      93  75  55 VRB5      29.98F HX 104
PINOPOLIS        N/A     90  79  70 CALM      29.91F HX 105
MONCKS CORNER  FAIR      90  72  55 SW3       29.97F HX  96
SUMMERVILLE    FAIR      90  73  58 SW3       29.98F HX  98
BEAUFORT MCAS  MOSUNNY   92  77  61 W8        29.98F HX 105
BEAUFORT ARPT  FAIR      90  73  58 N3        29.98F HX  98
HILTON HEAD IS SUNNY     91  77  62 N5        30.00F HX 105
WALTERBORO     MOSUNNY   90  73  58 W7        29.98F HX  98
ALLENDALE      NOT AVBL

...SOUTHERN MIDLANDS AND PEE DEE...

CITY           SKY/WX    TMP DP  RH WIND       PRES   REMARKS
GEORGETOWN     FAIR      90  79  70 SW9       29.98F HX 105
KINGSTREE      FAIR      90  73  58 W6        29.96F HX  98
ORANGEBURG     MOSUNNY   91  72  53 VRB6      29.97F HX  98
BARNWELL       FAIR      93  75  55 W7        29.97F HX 104
AIKEN          FAIR      90  73  58 W9        30.01F HX  98
MANNING        FAIR      90  72  55 CALM      29.96F HX  96
COLUMBIA       MOSUNNY   93  72  50 W9        29.95S HX 101
SUMTER         SUNNY     92  72  51 SW8       29.93F HX  99
FLORENCE       SUNNY     90  75  61 SW9       29.95F HX 100
MYRTLE BEACH   MOSUNNY   91  77  62 W9        29.98S HX 105
N MYRTLE BEACH MOSUNNY   90  77  65 VRB5      29.96F HX 103

$$

GAZ063-065-086>088-099>101-113>116-118-119-134>141-150-181700-
...SOUTHEAST GEORGIA...

CITY           SKY/WX    TMP DP  RH WIND       PRES   REMARKS
SAVANNAH ARPT  MOSUNNY   92  73  53 W6        30.00S HX 100
HUNTER AAF     SUNNY     92  75  58 N6        29.97F HX 102
FORT STEWART   SUNNY     92  73  53 SW8       29.98F HX  99
STATESBORO     MOSUNNY   90  67  45 S3        29.99F HX  93
SYLVANIA       MOSUNNY   92  76  60 W7        30.00F HX 104
CLAXTON        FAIR      92  73  52 CALM      29.99F HX 100

...CSRA...CENTRAL AND FAR SOUTHEAST GEORGIA...

CITY           SKY/WX    TMP DP  RH WIND       PRES   REMARKS
THOMSON        MOSUNNY   90  74  58 NW8       30.03F HX  99
AUGUSTA-BUSH   PTSUNNY   93  73  52 VRB6      29.97S HX 102
AUGUSTA-DANIEL MOSUNNY   90  70  51 NW8       29.99F HX  95
SWAINSBORO     FAIR      90  73  58 W9        30.01S HX  98
VIDALIA        MOSUNNY   91  72  52 W3        30.00F HX  98
EASTMAN        PTSUNNY   92  62  36 NW5       30.02F HX  92
HAZLEHURST     FAIR      94  58  29 NW5       29.99F HX  92
ALMA           SUNNY     94  70  45 N6        30.01F HX 100
WAYCROSS       MOSUNNY   91  71  51 N5        30.00F HX  97
JESUP          FAIR      93  70  46 N3        30.01F HX  99
BAXLEY         FAIR      90  70  51 N6        30.00F HX  95
BRUNSWICK      MOSUNNY   91  72  52 CALM      30.01F HX  98
SAINT SIMONS   MOSUNNY   89  78  70 SE8       30.01F HX 103

$$

SCZ027-028-034-036>038-045-046-048>050-GAZ119-141-181700-
...LAKE AND SUPPLEMENTAL COASTAL OBSERVATIONS...

STATION/POSITION TIME  TEMP    WIND        PRES    WAVE   SWELL
                       AIR SEA DIR/SP/G            HT/PER HT/PER/DIR
                 (UTC) (F)     (DEG/KT/KT) (MB)    (FT/S) (FT/S/D)
WINYAH BAY       1545   89     290/  6     1015.0S
LAKE MURRAY      1620   89     250/ 12/ 16 1013.2
ACE BASIN NERRS  1545   92     310/  2     1015.0F
FORT PULASKI     1600   88 86  280/  3/  4 1016.2
SAPELO ISLAND    1600   93        CALM     1016.0

$$

ANZ835-935-AMZ111-154-330-350-352-354-370-450-454-472-181700-
...C-MAN AND BUOY OBSERVATIONS...

STATION/POSITION TIME  TEMP    WIND        PRES    WAVE   SWELL
                       AIR SEA DIR/SP/G            HT/PER HT/PER/DIR
                 (UTC) (F)     (DEG/KT/KT) (MB)    (FT/S) (FT/S/D)
BUOY 41004       1610   84 85  230/ 10/ 14 1015.4
BUOY 41008       1550   83 85  170/  6/  8 1016.3F   1/ 8   2/100/ 8
FOLLY BEACH CMAN 1600   91      50/  2/  3 1016.0F
CAPERS NEARSHORE 1608   86 86  190/  6/ 10 1015.4F
FRIPP NEARSHORE  1608   89     160/  2/  4 1015.5F


STATION/POSITION TIME  TEMP    WIND        PRES    WAVE   SWELL
                       AIR SEA DIR/SP/G            HT/PER HT/PER/DIR
                 (UTC) (F)     (DEG/KT/KT) (MB)    (FT/S) (FT/S/D)
5E ST. MARYS GA  1600      85                N/A     1/ 8
FRYING PAN BUOY  1610   84 84  220/ 14/ 16 1015.2
BUOY 41025       1550   85 85  220/ 12/ 14 1015.0R   2/ 5   2/ 70/ 8
CAPE LOOKOUT NC  1600   85     220/ 12/ 15 1014.3F
BUOY 41002       1550   84 85  240/ 10/ 12 1017.5S   3/ 5   2/ 80/ 8
BUOY 41010       1610   84 86  280/  4/  6 1017.5
ST AUGUSTINE FL  1600   82 82  130/ 11/ 11 1016.8F


$$



USA.gov is the U.S. government's official web portal to all federal, state and local government web resources and services.